Weather History for KWDG - March, 2013

Change the Weather History Date:

Tuesday, March 19, 2013

  Actual Average Record
Temperature  
Mean Temperature 46 °F -  
Max Temperature 60 °F 58 °F 80 °F (2004)
Min Temperature 33 °F 39 °F 32 °F (1998)
Degree Days  
Heating Degree Days 18    
Moisture  
Dew Point 29 °F    
Average Humidity 64    
Maximum Humidity 87    
Minimum Humidity 20    
Precipitation  
Precipitation 0.00 in - - ()
Sea Level Pressure  
Sea Level Pressure 30.09 in    
Wind  
Wind Speed 6 mph (ENE)    
Max Wind Speed 17 mph    
Max Gust Speed 22 mph    
Visibility 10 miles    
Events      
Averages and records for this station are not official NWS values.
T = Trace of Precipitation, MM = Missing Value Source: NWS Daily Summary

Daily Weather History Graph

Daily Weather History Graph

Search for Another Location

Airport or City:

Trip Planner

Search our weather history database for the weather conditions in past years. The results will help you decide how hot, cold, wet, or windy it might be!

Date:

Astronomy

Mar. 19, 2013 Rise Set
Actual Time 7:35 AM CDT 7:42 PM CDT
Civil Twilight 7:10 AM CDT 8:08 PM CDT
Nautical Twilight 6:40 AM CDT 8:38 PM CDT
Astronomical Twilight 6:09 AM CDT 9:08 PM CDT
Moon 12:36 PM CDT (3/19) 2:21 AM CDT (3/19)
Length of Visible Light 12h 57m
Length of Day
12h 06m
Waxing Crescent, 50% of the Moon is Illuminated
Mar 19
Waxing Crescent
Mar 19
First Quarter
Mar 27
Full
Apr 2
Last Quarter
Apr 10
New

Hourly Weather History & Observations

Time (CDT) Temp. Windchill Dew Point Humidity Pressure Visibility Wind Dir Wind Speed Gust Speed Precip Events Conditions
12:15 AM 35.6 °F 32.8 °F 28.4 °F 75% 30.00 in 10.0 mi SE 3.5 mph - N/A   Clear
12:35 AM 33.8 °F - 28.4 °F 81% 30.00 in 10.0 mi Calm Calm - N/A   Clear
12:55 AM 35.6 °F 31.7 °F 30.2 °F 81% 30.00 in 10.0 mi SSW 4.6 mph - N/A   Clear
1:15 AM 33.8 °F 30.8 °F 30.2 °F 87% 29.99 in 10.0 mi SW 3.5 mph - N/A   Clear
1:35 AM 35.6 °F - 30.2 °F 81% 29.99 in 10.0 mi Calm Calm - N/A   Clear
1:55 AM 33.8 °F - 28.4 °F 81% 30.00 in 10.0 mi Calm Calm - N/A   Clear
2:15 AM 35.6 °F - 28.4 °F 75% 30.00 in 10.0 mi Calm Calm - N/A   Clear
2:55 AM 33.8 °F - 28.4 °F 81% 30.01 in 10.0 mi Calm Calm - N/A   Clear
3:15 AM 33.8 °F - 30.2 °F 87% 30.01 in 10.0 mi Calm Calm - N/A   Clear
3:35 AM 33.8 °F - 30.2 °F 87% 30.02 in 10.0 mi Calm Calm - N/A   Clear
3:55 AM 33.8 °F - 30.2 °F 87% 30.02 in 10.0 mi Calm Calm - N/A   Clear
4:15 AM 33.8 °F - 30.2 °F 87% 30.01 in 10.0 mi Calm Calm - N/A   Clear
4:35 AM 33.8 °F 27.0 °F 30.2 °F 87% 30.03 in 10.0 mi NE 8.1 mph - N/A   Clear
4:55 AM 35.6 °F 30.7 °F 30.2 °F 81% 30.04 in 10.0 mi ENE 5.8 mph - N/A   Clear
5:15 AM 35.6 °F 28.0 °F 30.2 °F 81% 30.04 in 10.0 mi NE 10.4 mph - N/A   Clear
5:35 AM 35.6 °F 27.1 °F 30.2 °F 81% 30.05 in 10.0 mi ENE 12.7 mph - N/A   Clear
5:55 AM 33.8 °F 25.3 °F 28.4 °F 81% 30.05 in 10.0 mi NE 11.5 mph - N/A   Clear
6:20 AM 33.8 °F 23.2 °F 28.4 °F 81% 30.07 in 10.0 mi NE 17.3 mph - N/A   Clear
8:50 AM 39.2 °F 30.2 °F 28.4 °F 65% 30.12 in 10.0 mi ENE 17.3 mph - N/A   Mostly Cloudy
9:57 AM 44.6 °F 37.4 °F 28.4 °F 53% 30.14 in 10.0 mi East 16.1 mph 21.9 mph N/A   Mostly Cloudy
10:50 AM 48.2 °F - 26.6 °F 43% 30.14 in 10.0 mi ESE 15.0 mph 21.9 mph N/A   Mostly Cloudy
11:50 AM 51.8 °F - 26.6 °F 38% 30.14 in 10.0 mi ESE 13.8 mph 19.6 mph N/A   Overcast
12:50 PM 55.4 °F - 28.4 °F 36% 30.13 in 10.0 mi ESE 13.8 mph - N/A   Overcast
1:50 PM 57.2 °F - 28.4 °F 33% 30.12 in 10.0 mi East 6.9 mph - N/A   Overcast
2:50 PM 59.0 °F - 17.6 °F 20% 30.10 in 10.0 mi South 9.2 mph - N/A   Overcast
3:50 PM 60.8 °F - 32.0 °F 34% 30.09 in 10.0 mi Calm Calm - N/A   Overcast
4:50 PM 60.8 °F - 32.0 °F 34% 30.09 in 10.0 mi South 4.6 mph - N/A   Overcast
5:59 PM 59.0 °F - 32.0 °F 36% 30.10 in 10.0 mi NNE 13.8 mph - N/A   Overcast
6:50 PM 55.4 °F - 32.0 °F 41% 30.12 in 10.0 mi NNE 11.5 mph - N/A   Overcast
7:50 PM 50.0 °F - 32.0 °F 50% 30.14 in 10.0 mi NNE 11.5 mph - N/A   Overcast
8:50 PM 48.2 °F - 32.0 °F 54% 30.15 in 10.0 mi NE 8.1 mph - N/A   Overcast
9:15 PM 46.4 °F 41.1 °F 30.2 °F 53% 30.18 in 10.0 mi NE 11.5 mph - N/A   Clear
9:35 PM 46.4 °F 41.9 °F 28.4 °F 50% 30.19 in 10.0 mi NE 9.2 mph - N/A   Clear
9:55 PM 44.6 °F 38.4 °F 28.4 °F 53% 30.20 in 10.0 mi ENE 12.7 mph - N/A   Clear
10:15 PM 44.6 °F 37.4 °F 30.2 °F 57% 30.22 in 10.0 mi ENE 16.1 mph - N/A   Clear
10:35 PM 44.6 °F 37.4 °F 30.2 °F 57% 30.23 in 10.0 mi ENE 16.1 mph 21.9 mph N/A   Clear
10:55 PM 44.6 °F 38.8 °F 30.2 °F 57% 30.23 in 10.0 mi East 11.5 mph - N/A   Clear
11:15 PM 42.8 °F 36.2 °F 30.2 °F 61% 30.24 in 10.0 mi ENE 12.7 mph - N/A   Clear
11:55 PM 39.2 °F 35.0 °F 30.2 °F 70% 30.26 in 10.0 mi NE 5.8 mph - N/A   Clear